Regional Weather Roundup
Issued by NWS

Home | Current Version | Previous Version | Graphics & Text | Print | Product List | Glossary On
Versions: 1 2 3 4 5 6 7 8 9 10 11 12 13 14 15 16 17 18 19 20 21 22 23 24 25 26 27 28 29 30 31 32 33 34 35 36 37 38 39 40 41 42 43 44 45 46 47 48 49 50
000
ASUS43 KMPX 221810
RWRMN
WEATHER ROUNDUP FOR MINNESOTA
NATIONAL WEATHER SERVICE TWIN CITIES/CHANHASSEN MN
100 PM CDT TUE JUL 22 2014


NOTE: "FAIR" INDICATES FEW OR NO CLOUDS BELOW 12,000 FEET WITH NO
SIGNIFICANT WEATHER AND/OR OBSTRUCTIONS TO VISIBILITY. N/A MEANS
CURRENT SKY AND/OR WEATHER CONDITIONS ARE NOT AVAILABLE.

MNZ060>063-068>070-221900-
   Twin Cities Metro

CITY           SKY/WX    TMP DP  RH WIND       PRES   REMARKS
TWIN CITIES    PTSUNNY   82  64  54 N13       30.00S
6HR MIN TEMP:  74; 6HR MAX TEMP:  82;

ST PAUL        PTSUNNY   77  64  64 NW14      30.00R
CRYSTAL        PTSUNNY   80  64  58 NW12G21   29.99R
BLAINE         PTSUNNY   79  66  65 NW9       30.01
LAKEVILLE      MOSUNNY   77  64  65 NW12G17   30.01R
EDEN PRAIRIE   PTSUNNY   80  65  59 NW12G22   30.00R
6HR MIN TEMP:  73; 6HR MAX TEMP:  80;

SOUTH ST PAUL  MOSUNNY   79  63  56 NW14G20   29.99R
LAKE ELMO      CLOUDY    77  66  69 W10G17    30.02R
$$
MNZ001>005-007-008-013>017-022>024-027-028-221900-
   Northwest Minnesota

CITY           SKY/WX    TMP DP  RH WIND       PRES   REMARKS
BEMIDJI        SUNNY     73  53  49 NW16      30.08R
HALLOCK        SUNNY     73  54  49 NW12G18   30.13S
ROSEAU         SUNNY     73  55  53 N14       30.10R
WARROAD        MOSUNNY   73  54  49 NW10G17   30.09R
THIEF RVR FALL SUNNY     72  52  49 N13       30.13R
CROOKSTON      SUNNY     73  55  53 N15       30.14R
FOSSTON        SUNNY     72  55  56 NW17G23   30.12S
DETROIT LAKES  SUNNY     73  54  49 NW13G24   30.13R
MOORHEAD       SUNNY     75  63  64 N15G22    30.14R
PARK RAPIDS    SUNNY     75  53  46 NW16G26   30.07S
$$
MNZ006-009>011-018-025>026-221900-
   North Central Minnesota

CITY           SKY/WX    TMP DP  RH WIND       PRES   REMARKS
BAUDETTE       SUNNY     72  57  59 N15G24    30.08R
FLAG ISLAND    MOSUNNY   72  52  49 NW17      30.07R
INTL FALLS     PTSUNNY   73  57  57 N12       30.02R
6HR MIN TEMP:  64; 6HR MAX TEMP:  74;

WASKISH        SUNNY     73  55  53 NW13      30.06S
BIG FORK       SUNNY     73  54  49 NW9       30.04R
LONGVILLE      SUNNY     73  55  53 NW16G23   30.05R
GRAND RAPIDS   MOSUNNY   73  57  56 NW15G23   30.01S
CRANE LAKE     PTSUNNY   66  61  82 N8G20     30.01R
ORR            MOSUNNY   72  57  60 NW10G18   29.98R
COOK           MOSUNNY   72  59  64 NW9G21    30.00R
$$
MNZ012-019>021-037-221900-
   Northeast Minnesota

CITY           SKY/WX    TMP DP  RH WIND       PRES   REMARKS
DULUTH         MOSUNNY   76  61  59 N18G25    29.95R
6HR MIN TEMP:  68; 6HR MAX TEMP:  76;

ELY            PTSUNNY   70  59  68 NW10G23   29.97R
HIBBING        MOSUNNY   75  59  57 NW21G28   29.99R
DULUTH HARBOR  MOSUNNY   79  63  57 NW13      29.93R
TWO HARBORS    MOSUNNY   75  61  60 NW9G18    29.90R
SILVER BAY     SUNNY     72  64  78 NW14G26   29.90R
GRAND MARAIS     N/A     74  63  68 N13G21    29.85R
G MARAIS ARPRT SUNNY     66  57  72 NW17G28   29.89R
$$
MNZ029>031-032-039>041-046>048-054>057-064-221900-
   West Central Minnesota

CITY           SKY/WX    TMP DP  RH WIND       PRES   REMARKS
FERGUS FALLS   MOSUNNY   73  54  49 N13G22    30.11R
WHEATON        PTSUNNY   73  57  56 N16G22    30.13R
MORRIS         MOSUNNY   75  61  60 N20G25    30.09R
ALEXANDRIA     MOSUNNY   74  56  53 N17G23    30.10R
ELBOW LAKE     FAIR      72  59  63 N15       30.11R
WADENA         SUNNY     73  57  56 NW13G18   30.08R
GLENWOOD       MOSUNNY   75  55  50 N20G26    30.08S
APPLETON       MOSUNNY   79  57  47 N16G23    30.09R
BENSON         MOSUNNY   75  57  53 NE17G25   30.08S
MADISON        MOSUNNY   79  61  53 N15G21    30.11R
WILLMAR        FAIR      79  55  44 N16       30.07S
$$
MNZ033>034-036-042>043-049>051-058-059-221900-
   Central Minnesota

CITY           SKY/WX    TMP DP  RH WIND       PRES   REMARKS
ST CLOUD       SUNNY     81  61  50 N15G22    30.02R
6HR MIN TEMP:  71; 6HR MAX TEMP:  81;

SAUK CENTRE    FAIR      76  58  52 NW20      30.06S
PAYNESVILLE    HVY RAIN  76  57  51 W10G20    30.06R
AITKIN         SUNNY     79  63  57 NW10G16   30.01R
PINE RIVER     SUNNY     75  57  53 NW10G22   30.08R
BRAINERD       SUNNY     76  55  48 NW18G26   30.04R
STAPLES        SUNNY     75  52  43 NW17G23   30.07R
LONG PRAIRIE   FAIR      75  55  50 NW14G21   30.08R
LITTLE FALLS   SUNNY     77  57  50 NW9G17    30.04S
LITCHFIELD     SUNNY     79  63  57 N15G21    30.05S
BUFFALO        MOSUNNY   78  62  56 NW10G18   30.04R
MAPLE LAKE     MOSUNNY   79  64  60 N13       30.04R
$$
MNZ037-044-045-052-053-221900-
   East Central Minnesota

CITY           SKY/WX    TMP DP  RH WIND       PRES   REMARKS
PRINCETON      MOSUNNY   79  63  57 NW14      30.02R
MORA           PTSUNNY   73  59  60 NW16      30.02R
CAMBRIDGE      MOSUNNY   79  63  57 N8        29.99R
RUSH CITY      PTSUNNY   76  63  63 NW10      30.00R
MOOSE LAKE     MOSUNNY   77  61  57 NW10G22   29.97R
HINCKLEY       MOCLDY    77  64  65 N14G21    29.98R
CLOQUET        MOSUNNY   75  59  57 NW17G30   29.97R
MCGREGOR       SUNNY     77  61  57 NW14G23   30.00S
$$
MNZ071>073-080-081-089-090-097-098-221900-
   Southwest Minnesota

CITY           SKY/WX    TMP DP  RH WIND       PRES   REMARKS
MONTEVIDEO     MOSUNNY   79  61  53 NE18      30.09S
GRANITE FALLS  SUNNY     77  61  58 NW14G21   30.09F
CANBY          MOSUNNY   79  58  47 N12G18    30.12S
MARSHALL       MOSUNNY   77  61  57 N16G25    30.09R
REDWOOD FALLS  SUNNY     79  64  60 N15G22    30.05S
OLIVIA         SUNNY     79  61  53 N14G21    30.05S
PIPESTONE      SUNNY     79  57  47 N14G20    30.13S
WINDOM         PTSUNNY   77  63  61 N14       30.10S
WORTHINGTON    PTSUNNY   75  64  69 N10G16    30.13R
JACKSON        PTSUNNY   77  63  61 NW13G20   30.11R
TRACY          MOSUNNY   77  65  66 N12G22    30.11R
SLAYTON        MOSUNNY   76  60  57 CALM      30.13R
$$
MNZ065>067-074>077-082>085-091>093-221900-
   South Central Minnesota

CITY           SKY/WX    TMP DP  RH WIND       PRES   REMARKS
MANKATO        PTSUNNY   79  63  57 NW13      30.04R
NEW ULM        SUNNY     79  66  65 NW12G18   30.05R
ST JAMES       PTSUNNY   77  64  65 W10       30.08R
FAIRMONT       PTSUNNY   79  63  57 NW13      30.07R
GLENCOE        MOSUNNY   79  63  57 NW10G16   30.03R
FARIBAULT      PTSUNNY   82  63  51 NW7       30.02R
OWATONNA       MOSUNNY   81  66  61 N8G18     30.02R
WASECA         PTSUNNY   77  63  61 NW9       30.05R
ALBERT LEA     SUNNY     81  66  61 W9        30.03R
$$
MNZ078>079-086>088-094>096-221900-
   Southeast Minnesota

CITY           SKY/WX    TMP DP  RH WIND       PRES   REMARKS
ROCHESTER      MOSUNNY   81  68  64 NW12      30.01R
6HR MIN TEMP:  77; 6HR MAX TEMP:  82;

RED WING       MOSUNNY   82  64  54 NW12      29.96S
STANTON        MOSUNNY   81  64  55 N13       29.99R
DODGE CENTER   MOSUNNY   81  68  65 N13       30.01R
WINONA         SUNNY     82  66  57 NW13G18   29.96R
AUSTIN         SUNNY     84  66  54 NW12G17   30.02R
PRESTON        SUNNY     82  74  77 N9        30.00R
$$
ABBREVIATIONS USED IN REMARKS
   TC - TEMPERATURES IN CELSIUS
  WCI - WIND CHILL INDEX
   HX - HEAT INDEX
  VSB - VISIBILITY
$$



USA.gov is the U.S. government's official web portal to all federal, state and local government web resources and services.